Time,TemperatureF,DewpointF,PressureIn,WindDirection,WindDirectionDegrees,WindSpeedMPH,WindSpeedGustMPH,Humidity,HourlyPrecipIn,Conditions,Clouds,dailyrainin,SoftwareType,DateUTC
2013-03-29 00:00:00,40.9,28.9,30.10,ENE,67,0.0,4.0,62,0.00,,---,0.00,VWS V14.01,2013-03-29 04:00:00,
2013-03-29 00:05:00,40.8,28.8,30.10,NNW,331,2.0,2.0,62,0.00,,---,0.00,VWS V14.01,2013-03-29 04:05:00,
2013-03-29 00:10:00,40.7,29.5,30.10,SSE,152,0.0,2.0,64,0.00,,---,0.00,VWS V14.01,2013-03-29 04:10:00,
2013-03-29 00:15:00,40.6,29.0,30.10,West,275,0.0,4.0,63,0.00,,---,0.00,VWS V14.01,2013-03-29 04:15:00,
2013-03-29 00:20:00,40.6,29.0,30.10,NW,309,0.0,5.0,63,0.00,,---,0.00,VWS V14.01,2013-03-29 04:20:00,
2013-03-29 00:25:00,40.5,28.5,30.10,NNW,331,1.0,3.0,62,0.00,,---,0.00,VWS V14.01,2013-03-29 04:25:00,
2013-03-29 00:30:00,40.3,28.7,30.10,NNW,331,0.0,3.0,63,0.00,,---,0.00,VWS V14.01,2013-03-29 04:30:00,
2013-03-29 00:35:00,40.1,28.5,30.10,NNW,331,0.0,1.0,63,0.00,,---,0.00,VWS V14.01,2013-03-29 04:35:00,
2013-03-29 00:40:00,39.9,28.3,30.10,NW,304,0.0,3.0,63,0.00,,---,0.00,VWS V14.01,2013-03-29 04:40:00,
2013-03-29 00:45:00,39.8,28.2,30.10,West,277,0.0,2.0,63,0.00,,---,0.00,VWS V14.01,2013-03-29 04:45:00,
2013-03-29 00:50:00,39.7,28.5,30.10,WNW,288,1.0,2.0,64,0.00,,---,0.00,VWS V14.01,2013-03-29 04:50:00,
2013-03-29 00:55:00,39.5,28.4,30.10,West,275,0.0,3.0,64,0.00,,---,0.00,VWS V14.01,2013-03-29 04:55:00,
2013-03-29 01:00:00,39.5,28.4,30.10,WNW,286,2.0,4.0,64,0.00,,---,0.00,VWS V14.01,2013-03-29 05:00:00,
2013-03-29 01:05:00,39.5,28.7,30.10,NW,307,1.0,4.0,65,0.00,,---,0.00,VWS V14.01,2013-03-29 05:05:00,
2013-03-29 01:10:00,39.6,28.4,30.10,WNW,297,3.0,8.0,64,0.00,,---,0.00,VWS V14.01,2013-03-29 05:10:00,
2013-03-29 01:15:00,39.8,28.6,30.10,WNW,301,1.0,2.0,64,0.00,,---,0.00,VWS V14.01,2013-03-29 05:15:00,
2013-03-29 01:20:00,39.7,28.5,30.11,WNW,301,0.0,2.0,64,0.00,,---,0.00,VWS V14.01,2013-03-29 05:20:00,
2013-03-29 01:25:00,39.5,28.0,30.11,WNW,301,0.0,2.0,63,0.00,,---,0.00,VWS V14.01,2013-03-29 05:25:00,
2013-03-29 01:30:00,39.3,28.5,30.11,WNW,301,0.0,2.0,65,0.00,,---,0.00,VWS V14.01,2013-03-29 05:30:00,
2013-03-29 01:35:00,39.1,28.3,30.10,SW,230,2.0,3.0,65,0.00,,---,0.00,VWS V14.01,2013-03-29 05:35:00,
2013-03-29 01:40:00,39.0,27.9,30.11,West,267,0.0,3.0,64,0.00,,---,0.00,VWS V14.01,2013-03-29 05:40:00,
2013-03-29 01:45:00,38.8,28.1,30.11,West,268,0.0,1.0,65,0.00,,---,0.00,VWS V14.01,2013-03-29 05:45:00,
2013-03-29 01:50:00,38.6,28.2,30.11,West,268,0.0,1.0,66,0.00,,---,0.00,VWS V14.01,2013-03-29 05:50:00,
2013-03-29 01:55:00,38.4,28.0,30.11,WSW,258,3.0,3.0,66,0.00,,---,0.00,VWS V14.01,2013-03-29 05:55:00,
2013-03-29 02:00:00,38.5,28.1,30.11,West,260,0.0,4.0,66,0.00,,---,0.00,VWS V14.01,2013-03-29 06:00:00,
2013-03-29 02:05:00,38.4,28.4,30.11,West,260,0.0,1.0,67,0.00,,---,0.00,VWS V14.01,2013-03-29 06:05:00,
2013-03-29 02:10:00,38.1,28.5,30.11,West,260,0.0,1.0,68,0.00,,---,0.00,VWS V14.01,2013-03-29 06:10:00,
2013-03-29 02:15:00,37.6,28.4,30.11,West,260,0.0,2.0,69,0.00,,---,0.00,VWS V14.01,2013-03-29 06:15:00,
2013-03-29 02:20:00,37.1,27.9,30.11,ESE,109,0.0,6.0,69,0.00,,---,0.00,VWS V14.01,2013-03-29 06:20:00,
2013-03-29 02:25:00,36.9,28.4,30.11,ESE,111,1.0,1.0,71,0.00,,---,0.00,VWS V14.01,2013-03-29 06:25:00,
2013-03-29 02:30:00,36.7,28.2,30.11,ESE,111,0.0,1.0,71,0.00,,---,0.00,VWS V14.01,2013-03-29 06:30:00,
2013-03-29 02:35:00,36.4,28.6,30.11,ESE,111,0.0,2.0,73,0.00,,---,0.00,VWS V14.01,2013-03-29 06:35:00,
2013-03-29 02:40:00,36.1,28.6,30.11,NE,44,0.0,2.0,74,0.00,,---,0.00,VWS V14.01,2013-03-29 06:40:00,
2013-03-29 02:45:00,36.0,28.9,30.11,NE,44,1.0,1.0,75,0.00,,---,0.00,VWS V14.01,2013-03-29 06:45:00,
2013-03-29 02:50:00,35.7,28.6,30.11,NNE,29,0.0,2.0,75,0.00,,---,0.00,VWS V14.01,2013-03-29 06:50:00,
2013-03-29 02:55:00,35.7,28.9,30.11,NNE,29,0.0,0.0,76,0.00,,---,0.00,VWS V14.01,2013-03-29 06:55:00,
2013-03-29 03:00:00,35.5,29.0,30.11,NNE,29,0.0,0.0,77,0.00,,---,0.00,VWS V14.01,2013-03-29 07:00:00,
2013-03-29 03:05:00,35.4,28.6,30.10,NNE,29,0.0,0.0,76,0.00,,---,0.00,VWS V14.01,2013-03-29 07:05:00,
2013-03-29 03:10:00,35.3,28.8,30.11,NNE,29,0.0,1.0,77,0.00,,---,0.00,VWS V14.01,2013-03-29 07:10:00,
2013-03-29 03:15:00,35.2,28.7,30.10,NNE,29,0.0,1.0,77,0.00,,---,0.00,VWS V14.01,2013-03-29 07:15:00,
2013-03-29 03:20:00,35.1,28.6,30.10,NNE,29,0.0,1.0,77,0.00,,---,0.00,VWS V14.01,2013-03-29 07:20:00,
2013-03-29 03:25:00,35.0,28.5,30.10,NNE,29,0.0,1.0,77,0.00,,---,0.00,VWS V14.01,2013-03-29 07:25:00,
2013-03-29 03:30:00,34.8,28.3,30.10,NNE,29,0.0,1.0,77,0.00,,---,0.00,VWS V14.01,2013-03-29 07:30:00,
2013-03-29 03:35:00,34.7,28.2,30.10,NNE,29,0.0,0.0,77,0.00,,---,0.00,VWS V14.01,2013-03-29 07:35:00,
2013-03-29 03:40:00,34.6,28.1,30.10,NNE,29,0.0,1.0,77,0.00,,---,0.00,VWS V14.01,2013-03-29 07:40:00,
2013-03-29 03:45:00,34.4,28.0,30.10,NNE,29,1.0,2.0,77,0.00,,---,0.00,VWS V14.01,2013-03-29 07:45:00,
2013-03-29 03:50:00,34.2,27.4,30.10,NNE,29,0.0,2.0,76,0.00,,---,0.00,VWS V14.01,2013-03-29 07:50:00,
2013-03-29 03:55:00,34.0,27.6,30.10,NNE,29,0.0,1.0,77,0.00,,---,0.00,VWS V14.01,2013-03-29 07:55:00,
2013-03-29 04:00:00,33.9,27.5,30.10,North,355,0.0,2.0,77,0.00,,---,0.00,VWS V14.01,2013-03-29 08:00:00,
2013-03-29 04:05:00,33.7,27.3,30.10,NW,305,0.0,0.0,77,0.00,,---,0.00,VWS V14.01,2013-03-29 08:05:00,
2013-03-29 04:10:00,33.5,27.4,30.10,NW,305,0.0,1.0,78,0.00,,---,0.00,VWS V14.01,2013-03-29 08:10:00,
2013-03-29 04:15:00,33.4,27.3,30.10,NW,305,0.0,0.0,78,0.00,,---,0.00,VWS V14.01,2013-03-29 08:15:00,
2013-03-29 04:20:00,33.2,27.1,30.10,NW,305,0.0,2.0,78,0.00,,---,0.00,VWS V14.01,2013-03-29 08:20:00,
2013-03-29 04:25:00,33.1,27.0,30.10,NW,305,0.0,0.0,78,0.00,,---,0.00,VWS V14.01,2013-03-29 08:25:00,
2013-03-29 04:30:00,33.0,26.9,30.11,NW,305,0.0,0.0,78,0.00,,---,0.00,VWS V14.01,2013-03-29 08:30:00,
2013-03-29 04:35:00,33.0,26.9,30.10,NW,305,0.0,1.0,78,0.00,,---,0.00,VWS V14.01,2013-03-29 08:35:00,
2013-03-29 04:40:00,32.8,26.7,30.11,NW,305,0.0,2.0,78,0.00,,---,0.00,VWS V14.01,2013-03-29 08:40:00,
2013-03-29 04:45:00,32.7,26.6,30.10,NW,305,0.0,0.0,78,0.00,,---,0.00,VWS V14.01,2013-03-29 08:45:00,
2013-03-29 04:50:00,32.6,26.8,30.11,NW,305,0.0,1.0,79,0.00,,---,0.00,VWS V14.01,2013-03-29 08:50:00,
2013-03-29 04:55:00,32.4,26.6,30.11,NW,305,0.0,0.0,79,0.00,,---,0.00,VWS V14.01,2013-03-29 08:55:00,
2013-03-29 05:00:00,32.4,26.6,30.11,NW,305,0.0,0.0,79,0.00,,---,0.00,VWS V14.01,2013-03-29 09:00:00,
2013-03-29 05:05:00,32.2,27.0,30.11,NW,305,0.0,0.0,81,0.00,,---,0.00,VWS V14.01,2013-03-29 09:05:00,
2013-03-29 05:10:00,31.9,27.0,30.11,NW,305,0.0,0.0,82,0.00,,---,0.00,VWS V14.01,2013-03-29 09:10:00,
2013-03-29 05:15:00,31.7,26.8,30.11,NW,305,0.0,0.0,82,0.00,,---,0.00,VWS V14.01,2013-03-29 09:15:00,
2013-03-29 05:20:00,31.5,26.4,30.11,NW,305,0.0,2.0,81,0.00,,---,0.00,VWS V14.01,2013-03-29 09:20:00,
2013-03-29 05:25:00,31.5,26.4,30.11,NW,305,0.0,0.0,81,0.00,,---,0.00,VWS V14.01,2013-03-29 09:25:00,
2013-03-29 05:30:00,31.5,26.4,30.11,NW,305,0.0,1.0,81,0.00,,---,0.00,VWS V14.01,2013-03-29 09:30:00,
2013-03-29 05:35:00,31.4,26.5,30.11,NW,305,0.0,1.0,82,0.00,,---,0.00,VWS V14.01,2013-03-29 09:35:00,
2013-03-29 05:40:00,31.4,26.8,30.11,NW,305,0.0,1.0,83,0.00,,---,0.00,VWS V14.01,2013-03-29 09:40:00,
2013-03-29 05:45:00,31.2,26.6,30.11,NW,305,0.0,1.0,83,0.00,,---,0.00,VWS V14.01,2013-03-29 09:45:00,
2013-03-29 05:49:00,31.0,26.7,30.11,NW,305,0.0,1.0,84,0.00,,---,0.00,VWS V14.01,2013-03-29 09:49:00,
2013-03-29 05:50:00,30.9,26.6,30.11,NW,305,0.0,1.0,84,0.00,,---,0.00,VWS V14.01,2013-03-29 09:50:00,
2013-03-29 05:54:00,30.8,26.5,30.10,NW,305,1.0,2.0,84,0.00,,---,0.00,VWS V14.01,2013-03-29 09:54:00,
2013-03-29 05:59:00,30.7,26.7,30.10,NW,305,0.0,2.0,85,0.00,,---,0.00,VWS V14.01,2013-03-29 09:59:00,
2013-03-29 06:00:00,30.6,26.6,30.11,NW,305,0.0,2.0,85,0.00,,---,0.00,VWS V14.01,2013-03-29 10:00:00,
2013-03-29 06:04:00,30.6,26.6,30.11,NW,305,0.0,0.0,85,0.00,,---,0.00,VWS V14.01,2013-03-29 10:04:00,
2013-03-29 06:09:00,30.5,26.2,30.11,NW,305,0.0,1.0,84,0.00,,---,0.00,VWS V14.01,2013-03-29 10:09:00,
2013-03-29 06:10:00,30.5,26.2,30.11,NW,305,0.0,1.0,84,0.00,,---,0.00,VWS V14.01,2013-03-29 10:10:00,
2013-03-29 06:14:00,30.5,26.2,30.11,NW,305,0.0,1.0,84,0.00,,---,0.00,VWS V14.01,2013-03-29 10:14:00,
2013-03-29 06:19:00,30.5,26.2,30.11,NW,305,0.0,2.0,84,0.00,,---,0.00,VWS V14.01,2013-03-29 10:19:00,
2013-03-29 06:20:00,30.5,26.2,30.11,NW,305,0.0,2.0,84,0.00,,---,0.00,VWS V14.01,2013-03-29 10:20:00,
2013-03-29 06:24:00,30.5,26.2,30.11,NW,305,1.0,1.0,84,0.00,,---,0.00,VWS V14.01,2013-03-29 10:24:00,
2013-03-29 06:29:00,30.5,26.5,30.11,NW,305,0.0,2.0,85,0.00,,---,0.00,VWS V14.01,2013-03-29 10:29:00,
2013-03-29 06:30:00,30.4,26.4,30.11,NW,305,0.0,2.0,85,0.00,,---,0.00,VWS V14.01,2013-03-29 10:30:00,
2013-03-29 06:34:00,30.3,26.6,30.11,NW,305,0.0,0.0,86,0.00,,---,0.00,VWS V14.01,2013-03-29 10:34:00,
2013-03-29 06:39:00,30.2,26.5,30.11,NW,305,0.0,1.0,86,0.00,,---,0.00,VWS V14.01,2013-03-29 10:39:00,
2013-03-29 06:40:00,30.1,26.4,30.11,NW,305,0.0,1.0,86,0.00,,---,0.00,VWS V14.01,2013-03-29 10:40:00,
2013-03-29 06:44:00,30.0,26.3,30.11,NW,305,1.0,2.0,86,0.00,,---,0.00,VWS V14.01,2013-03-29 10:44:00,
2013-03-29 06:49:00,30.0,26.6,30.11,NW,305,0.0,2.0,87,0.00,,---,0.00,VWS V14.01,2013-03-29 10:49:00,
2013-03-29 06:50:00,29.9,26.5,30.12,NW,305,1.0,2.0,87,0.00,,---,0.00,VWS V14.01,2013-03-29 10:50:00,
2013-03-29 06:54:00,29.9,26.5,30.12,NW,305,0.0,1.0,87,0.00,,---,0.00,VWS V14.01,2013-03-29 10:54:00,
2013-03-29 06:59:00,30.0,26.6,30.12,NW,305,0.0,1.0,87,0.00,,---,0.00,VWS V14.01,2013-03-29 10:59:00,
2013-03-29 07:00:00,30.0,26.6,30.12,NW,305,1.0,2.0,87,0.00,,---,0.00,VWS V14.01,2013-03-29 11:00:00,
2013-03-29 07:04:00,30.0,26.9,30.12,NW,305,0.0,1.0,88,0.00,,---,0.00,VWS V14.01,2013-03-29 11:04:00,
2013-03-29 07:09:00,30.0,26.6,30.12,NW,305,0.0,1.0,87,0.00,,---,0.00,VWS V14.01,2013-03-29 11:09:00,
2013-03-29 07:10:00,30.0,26.6,30.12,NW,305,0.0,1.0,87,0.00,,---,0.00,VWS V14.01,2013-03-29 11:10:00,
2013-03-29 07:14:00,30.1,26.7,30.12,NW,305,0.0,1.0,87,0.00,,---,0.00,VWS V14.01,2013-03-29 11:14:00,
2013-03-29 07:19:00,30.2,26.8,30.12,NW,305,1.0,2.0,87,0.00,,---,0.00,VWS V14.01,2013-03-29 11:19:00,
2013-03-29 07:20:00,30.2,26.8,30.12,NW,305,0.0,2.0,87,0.00,,---,0.00,VWS V14.01,2013-03-29 11:20:00,
2013-03-29 07:24:00,30.3,26.9,30.12,NW,305,0.0,1.0,87,0.00,,---,0.00,VWS V14.01,2013-03-29 11:24:00,
2013-03-29 07:29:00,30.4,27.3,30.12,NW,305,1.0,1.0,88,0.00,,---,0.00,VWS V14.01,2013-03-29 11:29:00,
2013-03-29 07:30:00,30.4,27.3,30.12,NW,305,1.0,2.0,88,0.00,,---,0.00,VWS V14.01,2013-03-29 11:30:00,
2013-03-29 07:34:00,30.5,27.4,30.12,NW,305,0.0,1.0,88,0.00,,---,0.00,VWS V14.01,2013-03-29 11:34:00,
2013-03-29 07:39:00,30.7,27.6,30.12,NW,305,0.0,1.0,88,0.00,,---,0.00,VWS V14.01,2013-03-29 11:39:00,
2013-03-29 07:40:00,30.7,27.6,30.12,NW,305,0.0,1.0,88,0.00,,---,0.00,VWS V14.01,2013-03-29 11:40:00,
2013-03-29 07:44:00,30.9,27.5,30.12,NW,305,0.0,0.0,87,0.00,,---,0.00,VWS V14.01,2013-03-29 11:44:00,
2013-03-29 07:49:00,31.2,27.5,30.12,NW,305,0.0,0.0,86,0.00,,---,0.00,VWS V14.01,2013-03-29 11:49:00,
2013-03-29 07:50:00,31.3,27.6,30.13,NW,305,0.0,0.0,86,0.00,,---,0.00,VWS V14.01,2013-03-29 11:50:00,
2013-03-29 07:54:00,31.6,27.9,30.13,NW,305,0.0,1.0,86,0.00,,---,0.00,VWS V14.01,2013-03-29 11:54:00,
2013-03-29 07:59:00,32.0,28.0,30.13,NW,305,0.0,1.0,85,0.00,,---,0.00,VWS V14.01,2013-03-29 11:59:00,
2013-03-29 08:00:00,32.2,28.5,30.13,NW,305,0.0,1.0,86,0.00,,---,0.00,VWS V14.01,2013-03-29 12:00:00,
2013-03-29 08:04:00,32.5,28.5,30.13,NW,305,0.0,1.0,85,0.00,,---,0.00,VWS V14.01,2013-03-29 12:04:00,
2013-03-29 08:09:00,33.1,28.8,30.13,NW,305,0.0,1.0,84,0.00,,---,0.00,VWS V14.01,2013-03-29 12:09:00,
2013-03-29 08:10:00,33.4,29.1,30.13,NW,305,0.0,1.0,84,0.00,,---,0.00,VWS V14.01,2013-03-29 12:10:00,
2013-03-29 08:14:00,33.7,29.7,30.13,NW,305,0.0,0.0,85,0.00,,---,0.00,VWS V14.01,2013-03-29 12:14:00,
2013-03-29 08:19:00,34.5,28.7,30.13,NW,305,0.0,2.0,79,0.00,,---,0.00,VWS V14.01,2013-03-29 12:19:00,
2013-03-29 08:20:00,34.9,28.8,30.13,NW,305,0.0,2.0,78,0.00,,---,0.00,VWS V14.01,2013-03-29 12:20:00,
2013-03-29 08:24:00,35.7,28.9,30.13,NW,305,0.0,1.0,76,0.00,,---,0.00,VWS V14.01,2013-03-29 12:24:00,
2013-03-29 08:29:00,36.6,29.1,30.13,NW,305,0.0,1.0,74,0.00,,---,0.00,VWS V14.01,2013-03-29 12:29:00,
2013-03-29 08:30:00,37.0,29.5,30.13,NW,305,0.0,1.0,74,0.00,,---,0.00,VWS V14.01,2013-03-29 12:30:00,
2013-03-29 08:34:00,37.6,29.4,30.12,WNW,294,2.0,3.0,72,0.00,,---,0.00,VWS V14.01,2013-03-29 12:34:00,
2013-03-29 08:39:00,38.5,29.9,30.12,West,277,0.0,3.0,71,0.00,,---,0.00,VWS V14.01,2013-03-29 12:39:00,
2013-03-29 08:40:00,38.8,29.9,30.13,West,262,3.0,4.0,70,0.00,,---,0.00,VWS V14.01,2013-03-29 12:40:00,
2013-03-29 08:44:00,39.2,29.5,30.12,West,272,0.0,4.0,68,0.00,,---,0.00,VWS V14.01,2013-03-29 12:44:00,
2013-03-29 08:49:00,39.7,29.7,30.12,West,277,0.0,4.0,67,0.00,,---,0.00,VWS V14.01,2013-03-29 12:49:00,
2013-03-29 08:50:00,39.9,29.9,30.12,West,277,2.0,4.0,67,0.00,,---,0.00,VWS V14.01,2013-03-29 12:50:00,
2013-03-29 08:54:00,40.2,29.8,30.12,West,277,0.0,2.0,66,0.00,,---,0.00,VWS V14.01,2013-03-29 12:54:00,
2013-03-29 08:59:00,40.6,30.1,30.13,West,261,0.0,2.0,66,0.00,,---,0.00,VWS V14.01,2013-03-29 12:59:00,
2013-03-29 09:00:00,40.8,30.0,30.13,West,261,2.0,2.0,65,0.00,,---,0.00,VWS V14.01,2013-03-29 13:00:00,
2013-03-29 09:04:00,41.1,29.9,30.13,West,262,1.0,2.0,64,0.00,,---,0.00,VWS V14.01,2013-03-29 13:04:00,
2013-03-29 09:09:00,41.4,29.8,30.13,West,267,4.0,5.0,63,0.00,,---,0.00,VWS V14.01,2013-03-29 13:09:00,
2013-03-29 09:10:00,41.5,29.9,30.13,West,281,0.0,5.0,63,0.00,,---,0.00,VWS V14.01,2013-03-29 13:10:00,
2013-03-29 09:14:00,41.8,29.8,30.13,WNW,290,2.0,3.0,62,0.00,,---,0.00,VWS V14.01,2013-03-29 13:14:00,
2013-03-29 09:19:00,42.2,30.1,30.12,WNW,302,3.0,5.0,62,0.00,,---,0.00,VWS V14.01,2013-03-29 13:19:00,
2013-03-29 09:20:00,42.3,29.8,30.12,NW,321,0.0,8.0,61,0.00,,---,0.00,VWS V14.01,2013-03-29 13:20:00,
2013-03-29 09:24:00,42.4,29.1,30.12,WSW,256,3.0,5.0,59,0.00,,---,0.00,VWS V14.01,2013-03-29 13:24:00,
2013-03-29 09:29:00,42.6,29.7,30.12,West,259,0.0,6.0,60,0.00,,---,0.00,VWS V14.01,2013-03-29 13:29:00,
2013-03-29 09:30:00,42.8,29.9,30.12,West,259,1.0,6.0,60,0.00,,---,0.00,VWS V14.01,2013-03-29 13:30:00,
2013-03-29 09:34:00,43.1,29.8,30.12,NW,306,0.0,2.0,59,0.00,,---,0.00,VWS V14.01,2013-03-29 13:34:00,
2013-03-29 09:39:00,43.7,30.3,30.11,WNW,282,2.0,5.0,59,0.00,,---,0.00,VWS V14.01,2013-03-29 13:39:00,
2013-03-29 09:40:00,43.7,29.9,30.11,West,275,1.0,5.0,58,0.00,,---,0.00,VWS V14.01,2013-03-29 13:40:00,
2013-03-29 09:44:00,43.8,29.6,30.11,NW,306,0.0,3.0,57,0.00,,---,0.00,VWS V14.01,2013-03-29 13:44:00,
2013-03-29 09:49:00,44.0,28.9,30.11,WNW,288,0.0,6.0,55,0.00,,---,0.00,VWS V14.01,2013-03-29 13:49:00,
2013-03-29 09:50:00,43.9,29.7,30.11,NW,309,2.0,6.0,57,0.00,,---,0.00,VWS V14.01,2013-03-29 13:50:00,
2013-03-29 09:54:00,44.0,29.3,30.12,WSW,257,5.0,7.0,56,0.00,,---,0.00,VWS V14.01,2013-03-29 13:54:00,
2013-03-29 09:59:00,44.2,29.1,30.11,West,277,2.0,7.0,55,0.00,,---,0.00,VWS V14.01,2013-03-29 13:59:00,
2013-03-29 10:00:00,44.2,29.1,30.11,West,277,0.0,7.0,55,0.00,,---,0.00,VWS V14.01,2013-03-29 14:00:00,
2013-03-29 10:04:00,44.4,29.3,30.11,WNW,296,5.0,5.0,55,0.00,,---,0.00,VWS V14.01,2013-03-29 14:04:00,
2013-03-29 10:09:00,44.7,29.1,30.11,NNE,21,0.0,10.0,54,0.00,,---,0.00,VWS V14.01,2013-03-29 14:09:00,
2013-03-29 10:10:00,44.9,29.7,30.11,SW,229,3.0,10.0,55,0.00,,---,0.00,VWS V14.01,2013-03-29 14:10:00,
2013-03-29 10:14:00,45.0,29.4,30.12,WNW,303,2.0,4.0,54,0.00,,---,0.00,VWS V14.01,2013-03-29 14:14:00,
2013-03-29 10:19:00,45.2,29.1,30.11,ENE,63,2.0,6.0,53,0.00,,---,0.00,VWS V14.01,2013-03-29 14:19:00,
2013-03-29 10:20:00,45.2,29.6,30.11,NE,55,0.0,6.0,54,0.00,,---,0.00,VWS V14.01,2013-03-29 14:20:00,
2013-03-29 10:24:00,45.4,28.8,30.11,West,274,0.0,5.0,52,0.00,,---,0.00,VWS V14.01,2013-03-29 14:24:00,
2013-03-29 10:29:00,45.6,30.4,30.11,West,271,1.0,5.0,55,0.00,,---,0.00,VWS V14.01,2013-03-29 14:29:00,
2013-03-29 10:30:00,45.8,29.7,30.11,WNW,303,1.0,5.0,53,0.00,,---,0.00,VWS V14.01,2013-03-29 14:30:00,
2013-03-29 10:34:00,46.1,29.5,30.11,NNW,333,1.0,3.0,52,0.00,,---,0.00,VWS V14.01,2013-03-29 14:34:00,
2013-03-29 10:39:00,46.7,30.0,30.11,East,79,1.0,3.0,52,0.00,,---,0.00,VWS V14.01,2013-03-29 14:39:00,
2013-03-29 10:40:00,46.9,29.2,30.11,NE,52,0.0,3.0,50,0.00,,---,0.00,VWS V14.01,2013-03-29 14:40:00,
2013-03-29 10:44:00,47.2,30.0,30.11,NW,320,2.0,3.0,51,0.00,,---,0.00,VWS V14.01,2013-03-29 14:44:00,
2013-03-29 10:49:00,47.2,29.0,30.11,WNW,297,1.0,6.0,49,0.00,,---,0.00,VWS V14.01,2013-03-29 14:49:00,
2013-03-29 10:50:00,47.3,29.6,30.11,WSW,252,0.0,6.0,50,0.00,,---,0.00,VWS V14.01,2013-03-29 14:50:00,
2013-03-29 10:54:00,47.6,29.9,30.11,WSW,252,0.0,1.0,50,0.00,,---,0.00,VWS V14.01,2013-03-29 14:54:00,
2013-03-29 10:59:00,48.0,29.3,30.11,NW,311,0.0,5.0,48,0.00,,---,0.00,VWS V14.01,2013-03-29 14:59:00,
2013-03-29 11:00:00,48.0,29.3,30.11,West,270,3.0,5.0,48,0.00,,---,0.00,VWS V14.01,2013-03-29 15:00:00,
2013-03-29 11:04:00,47.8,28.0,30.11,WNW,300,0.0,7.0,46,0.00,,---,0.00,VWS V14.01,2013-03-29 15:04:00,
2013-03-29 11:09:00,47.4,28.7,30.11,WSW,244,4.0,7.0,48,0.00,,---,0.00,VWS V14.01,2013-03-29 15:09:00,
2013-03-29 11:10:00,47.3,28.1,30.11,WSW,256,5.0,7.0,47,0.00,,---,0.00,VWS V14.01,2013-03-29 15:10:00,
2013-03-29 11:14:00,47.1,28.4,30.11,West,281,3.0,9.0,48,0.00,,---,0.00,VWS V14.01,2013-03-29 15:14:00,
2013-03-29 11:19:00,47.1,28.4,30.11,WNW,298,1.0,9.0,48,0.00,,---,0.00,VWS V14.01,2013-03-29 15:19:00,
2013-03-29 11:20:00,47.2,28.5,30.11,WNW,298,2.0,9.0,48,0.00,,---,0.00,VWS V14.01,2013-03-29 15:20:00,
2013-03-29 11:24:00,47.2,29.0,30.11,WNW,294,0.0,3.0,49,0.00,,---,0.00,VWS V14.01,2013-03-29 15:24:00,
2013-03-29 11:29:00,47.7,29.0,30.10,West,277,3.0,7.0,48,0.00,,---,0.00,VWS V14.01,2013-03-29 15:29:00,
2013-03-29 11:30:00,47.8,28.6,30.10,NW,317,2.0,7.0,47,0.00,,---,0.00,VWS V14.01,2013-03-29 15:30:00,
2013-03-29 11:34:00,47.7,28.0,30.10,NW,323,3.0,8.0,46,0.00,,---,0.00,VWS V14.01,2013-03-29 15:34:00,
2013-03-29 11:39:00,47.3,28.1,30.10,WNW,300,2.0,8.0,47,0.00,,---,0.00,VWS V14.01,2013-03-29 15:39:00,
2013-03-29 11:40:00,47.2,28.0,30.10,WNW,284,2.0,8.0,47,0.00,,---,0.00,VWS V14.01,2013-03-29 15:40:00,
2013-03-29 11:44:00,47.0,28.3,30.10,West,281,0.0,3.0,48,0.00,,---,0.00,VWS V14.01,2013-03-29 15:44:00,
2013-03-29 11:49:00,47.0,28.3,30.10,North,5,0.0,3.0,48,0.00,,---,0.00,VWS V14.01,2013-03-29 15:49:00,
2013-03-29 11:50:00,47.0,27.8,30.10,North,5,0.0,3.0,47,0.00,,---,0.00,VWS V14.01,2013-03-29 15:50:00,
2013-03-29 11:54:00,47.1,28.4,30.10,ENE,57,0.0,2.0,48,0.00,,---,0.00,VWS V14.01,2013-03-29 15:54:00,
2013-03-29 11:59:00,47.2,28.5,30.10,NW,311,2.0,5.0,48,0.00,,---,0.00,VWS V14.01,2013-03-29 15:59:00,
2013-03-29 12:00:00,47.2,28.5,30.09,West,273,1.0,5.0,48,0.00,,---,0.00,VWS V14.01,2013-03-29 16:00:00,
2013-03-29 12:04:00,47.2,28.0,30.09,NW,321,0.0,2.0,47,0.00,,---,0.00,VWS V14.01,2013-03-29 16:04:00,
2013-03-29 12:09:00,47.3,28.1,30.09,West,267,1.0,4.0,47,0.00,,---,0.00,VWS V14.01,2013-03-29 16:09:00,
2013-03-29 12:10:00,47.4,29.2,30.09,West,267,0.0,4.0,49,0.00,,---,0.00,VWS V14.01,2013-03-29 16:10:00,
2013-03-29 12:14:00,47.6,27.9,30.09,NE,53,2.0,3.0,46,0.00,,---,0.00,VWS V14.01,2013-03-29 16:14:00,
2013-03-29 12:19:00,47.7,27.4,30.09,NNE,31,0.0,3.0,45,0.00,,---,0.00,VWS V14.01,2013-03-29 16:19:00,
2013-03-29 12:20:00,47.8,28.0,30.09,West,270,3.0,5.0,46,0.00,,---,0.00,VWS V14.01,2013-03-29 16:20:00,
2013-03-29 12:24:00,47.8,27.5,30.09,NNW,327,0.0,3.0,45,0.00,,---,0.00,VWS V14.01,2013-03-29 16:24:00,
2013-03-29 12:29:00,47.8,27.5,30.08,WNW,302,0.0,3.0,45,0.00,,---,0.00,VWS V14.01,2013-03-29 16:29:00,
2013-03-29 12:30:00,47.9,27.6,30.09,WNW,300,0.0,3.0,45,0.00,,---,0.00,VWS V14.01,2013-03-29 16:30:00,
2013-03-29 12:34:00,47.8,27.0,30.09,WSW,242,2.0,6.0,44,0.00,,---,0.00,VWS V14.01,2013-03-29 16:34:00,
2013-03-29 12:39:00,47.6,27.9,30.09,NNW,335,0.0,6.0,46,0.00,,---,0.00,VWS V14.01,2013-03-29 16:39:00,
2013-03-29 12:40:00,47.6,27.3,30.08,North,355,0.0,6.0,45,0.00,,---,0.00,VWS V14.01,2013-03-29 16:40:00,
2013-03-29 12:44:00,47.7,26.3,30.08,WNW,284,2.0,6.0,43,0.00,,---,0.00,VWS V14.01,2013-03-29 16:44:00,
2013-03-29 12:49:00,47.4,27.1,30.08,SW,236,0.0,6.0,45,0.00,,---,0.00,VWS V14.01,2013-03-29 16:49:00,
2013-03-29 12:50:00,47.3,27.0,30.08,NW,309,1.0,6.0,45,0.00,,---,0.00,VWS V14.01,2013-03-29 16:50:00,
2013-03-29 12:54:00,47.3,27.0,30.08,West,271,0.0,4.0,45,0.00,,---,0.00,VWS V14.01,2013-03-29 16:54:00,
2013-03-29 12:59:00,47.4,27.7,30.08,NW,309,0.0,4.0,46,0.00,,---,0.00,VWS V14.01,2013-03-29 16:59:00,
2013-03-29 13:00:00,47.5,27.2,30.08,WNW,284,0.0,5.0,45,0.00,,---,0.00,VWS V14.01,2013-03-29 17:00:00,
2013-03-29 13:04:00,47.5,27.8,30.08,WNW,284,0.0,1.0,46,0.00,,---,0.00,VWS V14.01,2013-03-29 17:04:00,
2013-03-29 13:09:00,47.8,27.0,30.08,NNE,14,0.0,3.0,44,0.00,,---,0.00,VWS V14.01,2013-03-29 17:09:00,
2013-03-29 13:10:00,47.8,27.5,30.08,West,273,0.0,3.0,45,0.00,,---,0.00,VWS V14.01,2013-03-29 17:10:00,
2013-03-29 13:14:00,47.8,27.0,30.08,East,80,0.0,5.0,44,0.00,,---,0.00,VWS V14.01,2013-03-29 17:14:00,
2013-03-29 13:19:00,47.8,27.5,30.08,NW,315,2.0,5.0,45,0.00,,---,0.00,VWS V14.01,2013-03-29 17:19:00,
2013-03-29 13:20:00,47.8,27.5,30.07,West,271,3.0,5.0,45,0.00,,---,0.00,VWS V14.01,2013-03-29 17:20:00,
2013-03-29 13:24:00,47.7,26.9,30.07,West,260,5.0,9.0,44,0.00,,---,0.00,VWS V14.01,2013-03-29 17:24:00,
2013-03-29 13:29:00,47.4,26.6,30.07,West,263,1.0,10.0,44,0.00,,---,0.00,VWS V14.01,2013-03-29 17:29:00,
2013-03-29 13:30:00,47.3,27.6,30.07,West,270,0.0,10.0,46,0.00,,---,0.00,VWS V14.01,2013-03-29 17:30:00,
2013-03-29 13:34:00,47.3,27.6,30.07,WNW,300,4.0,4.0,46,0.00,,---,0.00,VWS V14.01,2013-03-29 17:34:00,
2013-03-29 13:39:00,47.2,28.0,30.07,NW,313,1.0,8.0,47,0.00,,---,0.00,VWS V14.01,2013-03-29 17:39:00,
2013-03-29 13:40:00,47.1,27.9,30.07,West,277,0.0,8.0,47,0.00,,---,0.00,VWS V14.01,2013-03-29 17:40:00,
2013-03-29 13:44:00,47.1,27.9,30.07,NW,311,0.0,6.0,47,0.00,,---,0.00,VWS V14.01,2013-03-29 17:44:00,
2013-03-29 13:49:00,47.3,28.1,30.07,NE,41,1.0,6.0,47,0.00,,---,0.00,VWS V14.01,2013-03-29 17:49:00,
2013-03-29 13:50:00,47.4,27.7,30.07,NNW,340,0.0,6.0,46,0.00,,---,0.00,VWS V14.01,2013-03-29 17:50:00,
2013-03-29 13:54:00,47.4,27.7,30.07,WNW,299,1.0,3.0,46,0.00,,---,0.00,VWS V14.01,2013-03-29 17:54:00,
2013-03-29 13:59:00,47.4,27.1,30.07,NW,314,0.0,3.0,45,0.00,,---,0.00,VWS V14.01,2013-03-29 17:59:00,
2013-03-29 14:00:00,47.3,27.0,30.07,WNW,301,2.0,6.0,45,0.00,,---,0.00,VWS V14.01,2013-03-29 18:00:00,
2013-03-29 14:04:00,47.2,27.0,30.07,NW,319,2.0,7.0,45,0.00,,---,0.00,VWS V14.01,2013-03-29 18:04:00,
2013-03-29 14:09:00,47.1,27.4,30.07,WNW,294,2.0,7.0,46,0.00,,---,0.00,VWS V14.01,2013-03-29 18:09:00,
2013-03-29 14:10:00,47.1,26.9,30.07,West,262,1.0,7.0,45,0.00,,---,0.00,VWS V14.01,2013-03-29 18:10:00,
2013-03-29 14:14:00,47.1,27.4,30.07,NNW,327,2.0,6.0,46,0.00,,---,0.00,VWS V14.01,2013-03-29 18:14:00,
2013-03-29 14:19:00,46.9,26.7,30.06,West,269,3.0,9.0,45,0.00,,---,0.00,VWS V14.01,2013-03-29 18:19:00,
2013-03-29 14:20:00,46.8,27.1,30.06,WNW,282,3.0,9.0,46,0.00,,---,0.00,VWS V14.01,2013-03-29 18:20:00,
2013-03-29 14:24:00,46.7,27.0,30.06,West,271,0.0,6.0,46,0.00,,---,0.00,VWS V14.01,2013-03-29 18:24:00,
2013-03-29 14:29:00,46.5,27.9,30.06,West,273,5.0,8.0,48,0.00,,---,0.00,VWS V14.01,2013-03-29 18:29:00,
2013-03-29 14:30:00,46.4,27.8,30.06,WNW,287,0.0,8.0,48,0.00,,---,0.00,VWS V14.01,2013-03-29 18:30:00,
2013-03-29 14:34:00,46.3,27.7,30.06,NW,315,1.0,5.0,48,0.00,,---,0.00,VWS V14.01,2013-03-29 18:34:00,
2013-03-29 14:39:00,46.2,26.6,30.06,WNW,296,2.0,7.0,46,0.00,,---,0.00,VWS V14.01,2013-03-29 18:39:00,
2013-03-29 14:40:00,46.2,27.6,30.06,NNW,333,2.0,7.0,48,0.00,,---,0.00,VWS V14.01,2013-03-29 18:40:00,
2013-03-29 14:44:00,46.1,27.0,30.06,WNW,286,0.0,3.0,47,0.00,,---,0.00,VWS V14.01,2013-03-29 18:44:00,
2013-03-29 14:49:00,46.1,27.0,30.06,West,277,0.0,4.0,47,0.00,,---,0.00,VWS V14.01,2013-03-29 18:49:00,
2013-03-29 14:50:00,46.1,27.5,30.06,West,259,6.0,6.0,48,0.00,,---,0.00,VWS V14.01,2013-03-29 18:50:00,
2013-03-29 14:54:00,46.0,26.9,30.06,NW,306,0.0,8.0,47,0.00,,---,0.00,VWS V14.01,2013-03-29 18:54:00,
2013-03-29 14:59:00,46.0,27.4,30.06,WSW,256,0.0,8.0,48,0.00,,---,0.00,VWS V14.01,2013-03-29 18:59:00,
2013-03-29 15:00:00,46.0,27.9,30.06,WSW,256,0.0,8.0,49,0.00,,---,0.00,VWS V14.01,2013-03-29 19:00:00,
2013-03-29 15:04:00,46.1,27.0,30.06,West,281,0.0,4.0,47,0.00,,---,0.00,VWS V14.01,2013-03-29 19:04:00,
2013-03-29 15:09:00,46.0,27.4,30.06,WNW,302,0.0,10.0,48,0.00,,---,0.00,VWS V14.01,2013-03-29 19:09:00,
2013-03-29 15:10:00,46.0,27.9,30.06,NW,316,1.0,10.0,49,0.00,,---,0.00,VWS V14.01,2013-03-29 19:10:00,
2013-03-29 15:14:00,45.9,27.8,30.06,West,259,4.0,6.0,49,0.00,,---,0.00,VWS V14.01,2013-03-29 19:14:00,
2013-03-29 15:19:00,45.6,28.0,30.06,WNW,292,0.0,10.0,50,0.00,,---,0.00,VWS V14.01,2013-03-29 19:19:00,
2013-03-29 15:20:00,45.5,28.4,30.06,NW,323,0.0,10.0,51,0.00,,---,0.00,VWS V14.01,2013-03-29 19:20:00,
2013-03-29 15:24:00,45.3,28.2,30.06,West,271,2.0,8.0,51,0.00,,---,0.00,VWS V14.01,2013-03-29 19:24:00,
2013-03-29 15:29:00,45.0,28.0,30.06,West,275,4.0,8.0,51,0.00,,---,0.00,VWS V14.01,2013-03-29 19:29:00,
2013-03-29 15:30:00,45.0,28.5,30.06,NNW,330,5.0,8.0,52,0.00,,---,0.00,VWS V14.01,2013-03-29 19:30:00,
2013-03-29 15:34:00,45.0,28.5,30.06,WNW,284,2.0,6.0,52,0.00,,---,0.00,VWS V14.01,2013-03-29 19:34:00,
2013-03-29 15:39:00,45.1,28.5,30.06,West,279,4.0,10.0,52,0.00,,---,0.00,VWS V14.01,2013-03-29 19:39:00,
2013-03-29 15:40:00,45.1,28.5,30.06,NW,326,3.0,10.0,52,0.00,,---,0.00,VWS V14.01,2013-03-29 19:40:00,
2013-03-29 15:44:00,45.3,27.8,30.06,NW,321,7.0,12.0,50,0.00,,---,0.00,VWS V14.01,2013-03-29 19:44:00,
2013-03-29 15:49:00,45.4,28.4,30.06,NW,305,4.0,12.0,51,0.00,,---,0.00,VWS V14.01,2013-03-29 19:49:00,
2013-03-29 15:50:00,45.5,28.4,30.06,West,279,2.0,12.0,51,0.00,,---,0.00,VWS V14.01,2013-03-29 19:50:00,
2013-03-29 15:54:00,45.5,28.4,30.06,West,279,3.0,6.0,51,0.00,,---,0.00,VWS V14.01,2013-03-29 19:54:00,
2013-03-29 15:59:00,45.4,28.4,30.06,WNW,303,4.0,9.0,51,0.00,,---,0.00,VWS V14.01,2013-03-29 19:59:00,
2013-03-29 16:00:00,45.3,28.7,30.06,WNW,300,6.0,9.0,52,0.00,,---,0.00,VWS V14.01,2013-03-29 20:00:00,
2013-03-29 16:04:00,45.1,28.5,30.06,WNW,291,1.0,6.0,52,0.00,,---,0.00,VWS V14.01,2013-03-29 20:04:00,
2013-03-29 16:09:00,44.9,28.8,30.06,WNW,298,0.0,6.0,53,0.00,,---,0.00,VWS V14.01,2013-03-29 20:09:00,
2013-03-29 16:10:00,44.8,28.3,30.06,WNW,292,6.0,6.0,52,0.00,,---,0.00,VWS V14.01,2013-03-29 20:10:00,
2013-03-29 16:14:00,44.6,28.5,30.07,West,270,2.0,6.0,53,0.00,,---,0.00,VWS V14.01,2013-03-29 20:14:00,
2013-03-29 16:19:00,44.5,28.9,30.07,West,276,0.0,6.0,54,0.00,,---,0.00,VWS V14.01,2013-03-29 20:19:00,
2013-03-29 16:20:00,44.5,28.9,30.07,WNW,302,2.0,6.0,54,0.00,,---,0.00,VWS V14.01,2013-03-29 20:20:00,
2013-03-29 16:24:00,44.5,28.9,30.07,WNW,290,4.0,7.0,54,0.00,,---,0.00,VWS V14.01,2013-03-29 20:24:00,
2013-03-29 16:29:00,44.3,29.2,30.06,NNW,327,2.0,7.0,55,0.00,,---,0.00,VWS V14.01,2013-03-29 20:29:00,
2013-03-29 16:30:00,44.3,28.7,30.07,NNE,19,0.0,7.0,54,0.00,,---,0.00,VWS V14.01,2013-03-29 20:30:00,
2013-03-29 16:34:00,44.2,28.6,30.07,WNW,294,0.0,3.0,54,0.00,,---,0.00,VWS V14.01,2013-03-29 20:34:00,
2013-03-29 16:39:00,44.0,28.9,30.07,WNW,299,0.0,7.0,55,0.00,,---,0.00,VWS V14.01,2013-03-29 20:39:00,
2013-03-29 16:40:00,43.9,28.8,30.07,West,281,0.0,7.0,55,0.00,,---,0.00,VWS V14.01,2013-03-29 20:40:00,
2013-03-29 16:44:00,43.8,29.1,30.07,West,281,0.0,0.0,56,0.00,,---,0.00,VWS V14.01,2013-03-29 20:44:00,
2013-03-29 16:49:00,43.7,28.6,30.07,WNW,283,1.0,6.0,55,0.00,,---,0.00,VWS V14.01,2013-03-29 20:49:00,
2013-03-29 16:50:00,43.6,29.0,30.07,WSW,258,3.0,6.0,56,0.00,,---,0.00,VWS V14.01,2013-03-29 20:50:00,
2013-03-29 16:54:00,43.6,29.0,30.07,West,268,2.0,5.0,56,0.00,,---,0.00,VWS V14.01,2013-03-29 20:54:00,
2013-03-29 16:59:00,43.5,28.9,30.07,WSW,248,1.0,5.0,56,0.00,,---,0.00,VWS V14.01,2013-03-29 20:59:00,
2013-03-29 17:00:00,43.4,28.8,30.07,WSW,248,0.0,5.0,56,0.00,,---,0.00,VWS V14.01,2013-03-29 21:00:00,
2013-03-29 17:04:00,43.4,29.2,30.07,WNW,288,0.0,5.0,57,0.00,,---,0.00,VWS V14.01,2013-03-29 21:04:00,
2013-03-29 17:09:00,43.4,29.2,30.07,WNW,290,1.0,5.0,57,0.00,,---,0.00,VWS V14.01,2013-03-29 21:09:00,
2013-03-29 17:10:00,43.4,28.8,30.07,West,279,2.0,5.0,56,0.00,,---,0.00,VWS V14.01,2013-03-29 21:10:00,
2013-03-29 17:14:00,43.4,29.2,30.07,WSW,258,2.0,5.0,57,0.00,,---,0.00,VWS V14.01,2013-03-29 21:14:00,
2013-03-29 17:19:00,43.4,29.2,30.07,NW,305,4.0,7.0,57,0.00,,---,0.00,VWS V14.01,2013-03-29 21:19:00,
2013-03-29 17:20:00,43.4,29.6,30.07,WNW,298,0.0,7.0,58,0.00,,---,0.00,VWS V14.01,2013-03-29 21:20:00,
2013-03-29 17:24:00,43.5,29.3,30.07,NW,306,0.0,7.0,57,0.00,,---,0.00,VWS V14.01,2013-03-29 21:24:00,
2013-03-29 17:29:00,43.5,29.3,30.07,West,271,3.0,7.0,57,0.00,,---,0.00,VWS V14.01,2013-03-29 21:29:00,
2013-03-29 17:30:00,43.5,29.3,30.08,WNW,286,2.0,7.0,57,0.00,,---,0.00,VWS V14.01,2013-03-29 21:30:00,
2013-03-29 17:34:00,43.4,29.2,30.08,WNW,295,2.0,9.0,57,0.00,,---,0.00,VWS V14.01,2013-03-29 21:34:00,
2013-03-29 17:39:00,43.4,29.6,30.07,West,273,2.0,9.0,58,0.00,,---,0.00,VWS V14.01,2013-03-29 21:39:00,
2013-03-29 17:40:00,43.4,29.2,30.07,WNW,292,1.0,9.0,57,0.00,,---,0.00,VWS V14.01,2013-03-29 21:40:00,
2013-03-29 17:44:00,43.3,28.7,30.07,WNW,286,0.0,3.0,56,0.00,,---,0.00,VWS V14.01,2013-03-29 21:44:00,
2013-03-29 17:49:00,43.3,28.7,30.08,West,281,0.0,6.0,56,0.00,,---,0.00,VWS V14.01,2013-03-29 21:49:00,
2013-03-29 17:50:00,43.3,28.7,30.08,NW,309,0.0,6.0,56,0.00,,---,0.00,VWS V14.01,2013-03-29 21:50:00,
2013-03-29 17:54:00,43.3,29.1,30.08,NW,309,0.0,1.0,57,0.00,,---,0.00,VWS V14.01,2013-03-29 21:54:00,
2013-03-29 17:59:00,43.3,28.7,30.08,WSW,249,2.0,3.0,56,0.00,,---,0.00,VWS V14.01,2013-03-29 21:59:00,
2013-03-29 18:00:00,43.3,28.7,30.08,WSW,257,2.0,3.0,56,0.00,,---,0.00,VWS V14.01,2013-03-29 22:00:00,
2013-03-29 18:04:00,43.2,28.6,30.08,WNW,303,3.0,3.0,56,0.00,,---,0.00,VWS V14.01,2013-03-29 22:04:00,
2013-03-29 18:09:00,43.0,28.4,30.08,WNW,292,1.0,5.0,56,0.00,,---,0.00,VWS V14.01,2013-03-29 22:09:00,
2013-03-29 18:10:00,43.0,28.8,30.08,WNW,292,0.0,5.0,57,0.00,,---,0.00,VWS V14.01,2013-03-29 22:10:00,
2013-03-29 18:14:00,42.9,28.3,30.08,West,271,1.0,4.0,56,0.00,,---,0.00,VWS V14.01,2013-03-29 22:14:00,
2013-03-29 18:19:00,42.8,28.6,30.08,West,261,2.0,4.0,57,0.00,,---,0.00,VWS V14.01,2013-03-29 22:19:00,
2013-03-29 18:20:00,42.8,28.6,30.08,West,261,0.0,4.0,57,0.00,,---,0.00,VWS V14.01,2013-03-29 22:20:00,
2013-03-29 18:24:00,42.8,28.2,30.08,WNW,285,1.0,5.0,56,0.00,,---,0.00,VWS V14.01,2013-03-29 22:24:00,
2013-03-29 18:29:00,42.7,29.0,30.08,WNW,290,0.0,5.0,58,0.00,,---,0.00,VWS V14.01,2013-03-29 22:29:00,
2013-03-29 18:30:00,42.7,28.5,30.08,WNW,290,0.0,5.0,57,0.00,,---,0.00,VWS V14.01,2013-03-29 22:30:00,
2013-03-29 18:34:00,42.6,28.9,30.08,WNW,290,1.0,2.0,58,0.00,,---,0.00,VWS V14.01,2013-03-29 22:34:00,
2013-03-29 18:39:00,42.5,28.4,30.08,WNW,289,0.0,2.0,57,0.00,,---,0.00,VWS V14.01,2013-03-29 22:39:00,
2013-03-29 18:40:00,42.5,28.4,30.08,WNW,289,0.0,2.0,57,0.00,,---,0.00,VWS V14.01,2013-03-29 22:40:00,
2013-03-29 18:44:00,42.5,28.4,30.08,WNW,289,0.0,2.0,57,0.00,,---,0.00,VWS V14.01,2013-03-29 22:44:00,
2013-03-29 18:49:00,42.5,28.4,30.08,WNW,289,0.0,2.0,57,0.00,,---,0.00,VWS V14.01,2013-03-29 22:49:00,
2013-03-29 18:50:00,42.4,28.3,30.08,WNW,289,0.0,2.0,57,0.00,,---,0.00,VWS V14.01,2013-03-29 22:50:00,
2013-03-29 18:54:00,42.4,28.7,30.08,WNW,292,0.0,2.0,58,0.00,,---,0.00,VWS V14.01,2013-03-29 22:54:00,
2013-03-29 18:59:00,42.4,28.3,30.08,WNW,292,2.0,4.0,57,0.00,,---,0.00,VWS V14.01,2013-03-29 22:59:00,
2013-03-29 19:00:00,42.4,28.3,30.08,WNW,288,2.0,4.0,57,0.00,,---,0.00,VWS V14.01,2013-03-29 23:00:00,
2013-03-29 19:04:00,42.4,28.7,30.08,WNW,292,0.0,2.0,58,0.00,,---,0.00,VWS V14.01,2013-03-29 23:04:00,
2013-03-29 19:09:00,42.3,28.6,30.08,WNW,292,0.0,2.0,58,0.00,,---,0.00,VWS V14.01,2013-03-29 23:09:00,
2013-03-29 19:10:00,42.3,28.6,30.08,West,276,1.0,3.0,58,0.00,,---,0.00,VWS V14.01,2013-03-29 23:10:00,
2013-03-29 19:14:00,42.3,28.6,30.08,West,276,0.0,1.0,58,0.00,,---,0.00,VWS V14.01,2013-03-29 23:14:00,
2013-03-29 19:19:00,42.2,28.5,30.08,WNW,292,1.0,6.0,58,0.00,,---,0.00,VWS V14.01,2013-03-29 23:19:00,
2013-03-29 19:20:00,42.2,28.5,30.09,West,276,2.0,6.0,58,0.00,,---,0.00,VWS V14.01,2013-03-29 23:20:00,
2013-03-29 19:24:00,42.2,28.9,30.08,West,263,0.0,3.0,59,0.00,,---,0.00,VWS V14.01,2013-03-29 23:24:00,
2013-03-29 19:29:00,42.2,28.9,30.09,WNW,288,1.0,3.0,59,0.00,,---,0.00,VWS V14.01,2013-03-29 23:29:00,
2013-03-29 19:30:00,42.1,28.8,30.09,West,277,0.0,4.0,59,0.00,,---,0.00,VWS V14.01,2013-03-29 23:30:00,
2013-03-29 19:34:00,42.1,28.8,30.09,West,280,0.0,5.0,59,0.00,,---,0.00,VWS V14.01,2013-03-29 23:34:00,
2013-03-29 19:39:00,42.0,29.1,30.09,West,272,0.0,5.0,60,0.00,,---,0.00,VWS V14.01,2013-03-29 23:39:00,
2013-03-29 19:40:00,41.9,29.0,30.08,WNW,292,0.0,5.0,60,0.00,,---,0.00,VWS V14.01,2013-03-29 23:40:00,
2013-03-29 19:44:00,41.9,29.0,30.09,WNW,292,0.0,1.0,60,0.00,,---,0.00,VWS V14.01,2013-03-29 23:44:00,
2013-03-29 19:49:00,41.9,29.5,30.09,WNW,292,0.0,1.0,61,0.00,,---,0.00,VWS V14.01,2013-03-29 23:49:00,
2013-03-29 19:50:00,41.8,29.4,30.09,WNW,292,1.0,1.0,61,0.00,,---,0.00,VWS V14.01,2013-03-29 23:50:00,
2013-03-29 19:54:00,41.8,29.4,30.09,WNW,292,0.0,2.0,61,0.00,,---,0.00,VWS V14.01,2013-03-29 23:54:00,
2013-03-29 19:59:00,41.6,29.6,30.09,WNW,292,0.0,2.0,62,0.00,,---,0.00,VWS V14.01,2013-03-29 23:59:00,
2013-03-29 20:00:00,41.6,29.6,30.09,WNW,292,0.0,2.0,62,0.00,,---,0.00,VWS V14.01,2013-03-30 00:00:00,
2013-03-29 20:04:00,41.6,29.6,30.09,WNW,292,0.0,0.0,62,0.00,,---,0.00,VWS V14.01,2013-03-30 00:04:00,
2013-03-29 20:09:00,41.5,29.5,30.09,WNW,292,0.0,0.0,62,0.00,,---,0.00,VWS V14.01,2013-03-30 00:09:00,
2013-03-29 20:10:00,41.4,29.4,30.09,WNW,292,0.0,0.0,62,0.00,,---,0.00,VWS V14.01,2013-03-30 00:10:00,
2013-03-29 20:14:00,41.4,29.4,30.09,WNW,292,0.0,0.0,62,0.00,,---,0.00,VWS V14.01,2013-03-30 00:14:00,
2013-03-29 20:19:00,41.3,29.7,30.09,WNW,292,0.0,0.0,63,0.00,,---,0.00,VWS V14.01,2013-03-30 00:19:00,
2013-03-29 20:20:00,41.2,29.6,30.09,WNW,292,0.0,0.0,63,0.00,,---,0.00,VWS V14.01,2013-03-30 00:20:00,
2013-03-29 20:24:00,41.1,29.5,30.10,WNW,292,0.0,0.0,63,0.00,,---,0.00,VWS V14.01,2013-03-30 00:24:00,
2013-03-29 20:29:00,40.9,29.7,30.09,WNW,292,0.0,0.0,64,0.00,,---,0.00,VWS V14.01,2013-03-30 00:29:00,
2013-03-29 20:30:00,40.9,29.7,30.09,WNW,292,0.0,0.0,64,0.00,,---,0.00,VWS V14.01,2013-03-30 00:30:00,
2013-03-29 20:34:00,40.7,29.9,30.09,WNW,292,0.0,2.0,65,0.00,,---,0.00,VWS V14.01,2013-03-30 00:34:00,
2013-03-29 20:39:00,40.5,29.7,30.09,WNW,292,0.0,2.0,65,0.00,,---,0.00,VWS V14.01,2013-03-30 00:39:00,
2013-03-29 20:40:00,40.4,30.0,30.09,WNW,292,1.0,2.0,66,0.00,,---,0.00,VWS V14.01,2013-03-30 00:40:00,
2013-03-29 20:44:00,40.2,30.1,30.10,WNW,292,0.0,1.0,67,0.00,,---,0.00,VWS V14.01,2013-03-30 00:44:00,
2013-03-29 20:49:00,40.0,29.9,30.09,WNW,284,3.0,3.0,67,0.00,,---,0.00,VWS V14.01,2013-03-30 00:49:00,
2013-03-29 20:50:00,39.8,29.8,30.10,WNW,293,6.0,6.0,67,0.00,,---,0.00,VWS V14.01,2013-03-30 00:50:00,
2013-03-29 20:54:00,39.9,29.5,30.10,West,259,4.0,7.0,66,0.00,,---,0.00,VWS V14.01,2013-03-30 00:54:00,
2013-03-29 20:59:00,40.0,29.6,30.10,WNW,297,0.0,7.0,66,0.00,,---,0.00,VWS V14.01,2013-03-30 00:59:00,
2013-03-29 21:00:00,39.9,29.5,30.10,WNW,297,0.0,7.0,66,0.00,,---,0.00,VWS V14.01,2013-03-30 01:00:00,
2013-03-29 21:04:00,39.8,29.4,30.10,WNW,297,0.0,0.0,66,0.00,,---,0.00,VWS V14.01,2013-03-30 01:04:00,
2013-03-29 21:09:00,39.6,29.2,30.10,WNW,297,0.0,0.0,66,0.00,,---,0.00,VWS V14.01,2013-03-30 01:09:00,
2013-03-29 21:10:00,39.5,29.1,30.10,WNW,297,0.0,0.0,66,0.00,,---,0.00,VWS V14.01,2013-03-30 01:10:00,
2013-03-29 21:14:00,39.3,29.3,30.10,WNW,297,0.0,0.0,67,0.00,,---,0.00,VWS V14.01,2013-03-30 01:14:00,
2013-03-29 21:19:00,39.0,29.4,30.10,WNW,297,0.0,1.0,68,0.00,,---,0.00,VWS V14.01,2013-03-30 01:19:00,
2013-03-29 21:20:00,38.8,29.2,30.10,WNW,297,0.0,1.0,68,0.00,,---,0.00,VWS V14.01,2013-03-30 01:20:00,
2013-03-29 21:24:00,38.7,29.1,30.10,WNW,297,0.0,0.0,68,0.00,,---,0.00,VWS V14.01,2013-03-30 01:24:00,
2013-03-29 21:29:00,38.5,28.9,30.10,SSE,155,0.0,4.0,68,0.00,,---,0.00,VWS V14.01,2013-03-30 01:29:00,
2013-03-29 21:30:00,38.5,29.2,30.11,SSE,155,0.0,4.0,69,0.00,,---,0.00,VWS V14.01,2013-03-30 01:30:00,
2013-03-29 21:34:00,38.3,29.0,30.11,SSE,155,0.0,1.0,69,0.00,,---,0.00,VWS V14.01,2013-03-30 01:34:00,
2013-03-29 21:39:00,38.2,28.9,30.10,SSE,155,0.0,1.0,69,0.00,,---,0.00,VWS V14.01,2013-03-30 01:39:00,
2013-03-29 21:40:00,38.1,28.8,30.11,SSE,155,0.0,1.0,69,0.00,,---,0.00,VWS V14.01,2013-03-30 01:40:00,
2013-03-29 21:44:00,38.0,28.8,30.11,SSE,155,0.0,1.0,69,0.00,,---,0.00,VWS V14.01,2013-03-30 01:44:00,
2013-03-29 21:49:00,38.0,28.8,30.11,SW,235,0.0,4.0,69,0.00,,---,0.00,VWS V14.01,2013-03-30 01:49:00,
2013-03-29 21:50:00,38.1,28.8,30.11,West,259,0.0,4.0,69,0.00,,---,0.00,VWS V14.01,2013-03-30 01:50:00,
2013-03-29 21:54:00,38.3,29.0,30.11,West,259,0.0,2.0,69,0.00,,---,0.00,VWS V14.01,2013-03-30 01:54:00,
2013-03-29 21:59:00,38.3,29.0,30.11,West,259,0.0,2.0,69,0.00,,---,0.00,VWS V14.01,2013-03-30 01:59:00,
2013-03-29 22:00:00,38.3,28.7,30.11,West,259,0.0,2.0,68,0.00,,---,0.00,VWS V14.01,2013-03-30 02:00:00,
2013-03-29 22:04:00,38.3,29.0,30.11,West,259,0.0,1.0,69,0.00,,---,0.00,VWS V14.01,2013-03-30 02:04:00,
2013-03-29 22:09:00,38.3,29.0,30.11,West,259,0.0,1.0,69,0.00,,---,0.00,VWS V14.01,2013-03-30 02:09:00,
2013-03-29 22:10:00,38.2,28.9,30.11,West,259,0.0,1.0,69,0.00,,---,0.00,VWS V14.01,2013-03-30 02:10:00,
2013-03-29 22:14:00,38.2,28.9,30.12,West,259,0.0,0.0,69,0.00,,---,0.00,VWS V14.01,2013-03-30 02:14:00,
2013-03-29 22:19:00,38.1,29.2,30.11,West,259,0.0,0.0,70,0.00,,---,0.00,VWS V14.01,2013-03-30 02:19:00,
2013-03-29 22:20:00,38.1,29.5,30.11,West,259,0.0,0.0,71,0.00,,---,0.00,VWS V14.01,2013-03-30 02:20:00,
2013-03-29 22:24:00,38.1,29.9,30.11,West,259,0.0,0.0,72,0.00,,---,0.00,VWS V14.01,2013-03-30 02:24:00,
2013-03-29 22:29:00,38.0,29.5,30.12,West,259,0.0,0.0,71,0.00,,---,0.00,VWS V14.01,2013-03-30 02:29:00,
2013-03-29 22:30:00,38.0,29.5,30.12,West,259,0.0,0.0,71,0.00,,---,0.00,VWS V14.01,2013-03-30 02:30:00,
2013-03-29 22:34:00,38.0,29.5,30.12,West,259,0.0,0.0,71,0.00,,---,0.00,VWS V14.01,2013-03-30 02:34:00,
2013-03-29 22:39:00,38.0,29.5,30.12,West,259,0.0,0.0,71,0.00,,---,0.00,VWS V14.01,2013-03-30 02:39:00,
2013-03-29 22:40:00,38.0,29.8,30.12,West,259,0.0,0.0,72,0.00,,---,0.00,VWS V14.01,2013-03-30 02:40:00,
2013-03-29 22:44:00,38.0,29.8,30.12,West,259,0.0,0.0,72,0.00,,---,0.00,VWS V14.01,2013-03-30 02:44:00,
2013-03-29 22:49:00,38.0,29.8,30.12,West,259,0.0,0.0,72,0.00,,---,0.00,VWS V14.01,2013-03-30 02:49:00,
2013-03-29 22:50:00,37.9,29.7,30.12,West,259,0.0,0.0,72,0.00,,---,0.00,VWS V14.01,2013-03-30 02:50:00,
2013-03-29 22:54:00,37.9,29.7,30.12,West,259,0.0,0.0,72,0.00,,---,0.00,VWS V14.01,2013-03-30 02:54:00,
2013-03-29 22:59:00,37.8,29.9,30.12,West,259,0.0,0.0,73,0.00,,---,0.00,VWS V14.01,2013-03-30 02:59:00,
2013-03-29 23:00:00,37.7,29.5,30.12,West,259,0.0,0.0,72,0.00,,---,0.00,VWS V14.01,2013-03-30 03:00:00,
2013-03-29 23:04:00,37.6,29.4,30.12,West,259,0.0,0.0,72,0.00,,---,0.00,VWS V14.01,2013-03-30 03:04:00,
2013-03-29 23:09:00,37.4,29.2,30.12,West,259,0.0,0.0,72,0.00,,---,0.00,VWS V14.01,2013-03-30 03:09:00,
2013-03-29 23:10:00,37.3,29.5,30.12,West,259,0.0,0.0,73,0.00,,---,0.00,VWS V14.01,2013-03-30 03:10:00,
2013-03-29 23:14:00,37.2,29.4,30.12,West,259,0.0,0.0,73,0.00,,---,0.00,VWS V14.01,2013-03-30 03:14:00,
2013-03-29 23:19:00,36.9,29.1,30.12,West,259,0.0,1.0,73,0.00,,---,0.00,VWS V14.01,2013-03-30 03:19:00,
2013-03-29 23:20:00,36.8,29.0,30.12,West,259,0.0,1.0,73,0.00,,---,0.00,VWS V14.01,2013-03-30 03:20:00,
2013-03-29 23:24:00,36.7,28.9,30.12,West,259,0.0,0.0,73,0.00,,---,0.00,VWS V14.01,2013-03-30 03:24:00,
2013-03-29 23:29:00,36.4,28.9,30.12,West,259,0.0,0.0,74,0.00,,---,0.00,VWS V14.01,2013-03-30 03:29:00,
2013-03-29 23:30:00,36.3,28.8,30.12,West,259,0.0,0.0,74,0.00,,---,0.00,VWS V14.01,2013-03-30 03:30:00,
2013-03-29 23:34:00,36.2,29.0,30.11,West,259,0.0,0.0,75,0.00,,---,0.00,VWS V14.01,2013-03-30 03:34:00,
2013-03-29 23:39:00,36.0,28.9,30.12,West,259,0.0,0.0,75,0.00,,---,0.00,VWS V14.01,2013-03-30 03:39:00,
2013-03-29 23:40:00,35.9,28.8,30.12,West,259,0.0,2.0,75,0.00,,---,0.00,VWS V14.01,2013-03-30 03:40:00,
2013-03-29 23:44:00,35.8,29.0,30.11,West,259,0.0,1.0,76,0.00,,---,0.00,VWS V14.01,2013-03-30 03:44:00,
2013-03-29 23:49:00,35.6,28.8,30.11,West,259,0.0,1.0,76,0.00,,---,0.00,VWS V14.01,2013-03-30 03:49:00,
2013-03-29 23:50:00,35.5,28.7,30.11,West,259,0.0,1.0,76,0.00,,---,0.00,VWS V14.01,2013-03-30 03:50:00,
2013-03-29 23:54:00,35.5,28.7,30.11,West,259,0.0,0.0,76,0.00,,---,0.00,VWS V14.01,2013-03-30 03:54:00,
2013-03-29 23:59:00,35.5,29.0,30.11,West,259,0.0,0.0,77,0.00,,---,0.00,VWS V14.01,2013-03-30 03:59:00,